Praetorian SDA-614

operational
NORAD ID: 65577 Int'l Des: 2025-203 Owner: SDA Country: US
LEOCIRCULARPOLAR

About Praetorian SDA-614

Description loading...

Live Position

Loading 3D Globe...

Upcoming Passes

Altitude History

Altitude vs Time

uPlot chart will show altitude changes over time

Two-Line Element Set

1 65577U 25203N 26062.18410399 -.00000638 00000-0 -57789-3 0 9991
2 65577 81.2990 108.8846 0008358 117.0503 243.1508 13.84762429 24046
Epoch: Mar 3, 2026 • Age: 8 hours

Current Status

Altitude 955.1 km
Velocity 7.38 km/s
Sub-Earth Point 80.95°N, 104.14°W
Launch Date Sep 10, 2025
Age 0.4 years
Type other

Technical Details

Classification Payload
Mass 300.00 kg
Dry Mass 300.00 kg
Total Mass 300.00 kg
Length 1.00 m
Diameter 0.60 m
Span 2.00 m
Shape Box + panels
Manufacturer YORKSS
Bus Type S-Class
Phase Status In Orbit
Owner/State SDA/US

Large Constellations

Loading constellations...